N531BM KCRQ-KPOC

Flight info

Callsign N531BM
Flight time 0h 27m
Altitude 8000
Route SANP23
Aircraft PA34/L-VGD/C

Departure

Time 2026-04-28 01:51
Airport McClellan-Palomar Airport (KCRQ)

Arrival

Time 2026-04-28 02:18
Airport Brackett Field (KPOC)
Time Latitude Longitude Altitude Speed Heading
2026-04-28 01:42 33.12709 -117.27549 334 ft 0 kts 256°
2026-04-28 01:46 33.12709 -117.27550 335 ft 0 kts 256°
2026-04-28 01:46 33.12709 -117.27551 334 ft 0 kts 256°
2026-04-28 01:47 33.12709 -117.27552 334 ft 0 kts 257°
2026-04-28 01:47 33.12709 -117.27553 334 ft 0 kts 257°
2026-04-28 01:48 33.12708 -117.27554 334 ft 0 kts 256°
2026-04-28 01:49 33.12751 -117.27573 334 ft 14 kts 358°
2026-04-28 01:49 33.12808 -117.27478 334 ft 21 kts 78°
2026-04-28 01:50 33.12839 -117.27270 334 ft 23 kts 76°
2026-04-28 01:50 33.12905 -117.27233 334 ft 11 kts 346°
2026-04-28 01:50 33.12945 -117.27273 334 ft 7 kts 259°
2026-04-28 01:50 33.12899 -117.27554 335 ft 69 kts 260°
2026-04-28 01:51 33.12765 -117.28278 500 ft 102 kts 258°
2026-04-28 01:51 33.12596 -117.29135 875 ft 108 kts 258°
2026-04-28 01:51 33.12396 -117.30000 1305 ft 110 kts 255°
2026-04-28 01:51 33.12143 -117.30933 1551 ft 126 kts 255°
2026-04-28 01:52 33.11910 -117.31959 2180 ft 128 kts 258°
2026-04-28 01:52 33.11730 -117.32990 2886 ft 127 kts 261°
2026-04-28 01:52 33.11505 -117.34015 3435 ft 129 kts 255°
2026-04-28 01:52 33.11272 -117.35071 3697 ft 139 kts 260°
2026-04-28 01:53 33.11393 -117.36231 3971 ft 142 kts 294°
2026-04-28 01:53 33.12016 -117.37095 4372 ft 136 kts 325°
2026-04-28 01:53 33.12918 -117.37528 4627 ft 144 kts 346°
2026-04-28 01:53 33.13893 -117.37753 4991 ft 141 kts 350°
2026-04-28 01:54 33.14823 -117.38039 5411 ft 136 kts 339°
2026-04-28 01:54 33.15688 -117.38506 5746 ft 139 kts 335°
2026-04-28 01:54 33.16626 -117.38959 5973 ft 149 kts 339°
2026-04-28 01:54 33.17641 -117.39410 6115 ft 160 kts 340°
2026-04-28 01:55 33.18712 -117.39854 6279 ft 167 kts 340°
2026-04-28 01:55 33.19852 -117.40332 6034 ft 186 kts 344°
2026-04-28 01:55 33.21070 -117.40740 6076 ft 180 kts 343°
2026-04-28 01:55 33.22300 -117.41071 6056 ft 181 kts 349°
2026-04-28 01:56 33.23530 -117.41430 5999 ft 182 kts 341°
2026-04-28 01:56 33.24681 -117.42017 5992 ft 180 kts 327°
2026-04-28 01:56 33.25566 -117.43054 6010 ft 178 kts 309°
2026-04-28 01:56 33.26328 -117.44231 6003 ft 178 kts 308°
2026-04-28 01:57 33.27114 -117.45371 6001 ft 178 kts 311°
2026-04-28 01:57 33.27984 -117.46429 6000 ft 178 kts 320°
2026-04-28 01:57 33.28936 -117.47349 6002 ft 178 kts 320°
2026-04-28 01:57 33.29842 -117.48362 6001 ft 178 kts 315°
2026-04-28 01:58 33.30709 -117.49424 6000 ft 178 kts 314°
2026-04-28 01:58 33.31583 -117.50467 6000 ft 178 kts 315°
2026-04-28 01:58 33.32476 -117.51495 6000 ft 178 kts 316°
2026-04-28 01:58 33.33372 -117.52516 6000 ft 178 kts 316°
2026-04-28 01:59 33.34268 -117.53541 6000 ft 178 kts 316°
2026-04-28 01:59 33.35156 -117.54565 6000 ft 178 kts 316°
2026-04-28 01:59 33.36049 -117.55599 6000 ft 178 kts 316°
2026-04-28 01:59 33.36937 -117.56628 6000 ft 178 kts 316°
2026-04-28 02:00 33.37824 -117.57656 6000 ft 178 kts 316°
2026-04-28 02:00 33.38717 -117.58689 6000 ft 178 kts 316°
2026-04-28 02:00 33.39595 -117.59705 6000 ft 178 kts 316°
2026-04-28 02:00 33.40494 -117.60745 6000 ft 178 kts 316°
2026-04-28 02:01 33.41376 -117.61765 6000 ft 178 kts 316°
2026-04-28 02:01 33.42264 -117.62792 6000 ft 178 kts 316°
2026-04-28 02:01 33.43157 -117.63827 6000 ft 178 kts 316°
2026-04-28 02:01 33.44044 -117.64865 6000 ft 178 kts 315°
2026-04-28 02:02 33.44933 -117.65906 6000 ft 178 kts 315°
2026-04-28 02:02 33.45817 -117.66943 6000 ft 178 kts 315°
2026-04-28 02:02 33.46702 -117.67980 6000 ft 178 kts 315°
2026-04-28 02:02 33.47658 -117.68919 6004 ft 178 kts 328°
2026-04-28 02:03 33.48731 -117.69661 6003 ft 178 kts 332°
2026-04-28 02:03 33.49859 -117.70269 6000 ft 178 kts 339°
2026-04-28 02:03 33.51036 -117.70672 6000 ft 178 kts 348°
2026-04-28 02:03 33.52283 -117.70879 6001 ft 178 kts 355°
2026-04-28 02:04 33.53506 -117.70950 6001 ft 178 kts 358°
2026-04-28 02:04 33.54745 -117.70996 6000 ft 178 kts 358°
2026-04-28 02:04 33.55983 -117.71099 6000 ft 178 kts 354°
2026-04-28 02:04 33.57231 -117.71276 6000 ft 178 kts 353°
2026-04-28 02:05 33.58446 -117.71443 6000 ft 178 kts 353°
2026-04-28 02:05 33.59680 -117.71609 6000 ft 178 kts 353°
2026-04-28 02:05 33.60914 -117.71774 6000 ft 178 kts 353°
2026-04-28 02:05 33.62144 -117.71938 6000 ft 178 kts 353°
2026-04-28 02:06 33.63380 -117.72104 6000 ft 178 kts 353°
2026-04-28 02:06 33.64614 -117.72269 6000 ft 178 kts 353°
2026-04-28 02:06 33.65847 -117.72434 6000 ft 178 kts 353°
2026-04-28 02:06 33.67051 -117.72742 5997 ft 178 kts 337°
2026-04-28 02:07 33.68142 -117.73455 6006 ft 178 kts 328°
2026-04-28 02:07 33.69209 -117.74214 5997 ft 178 kts 335°
2026-04-28 02:07 33.70382 -117.74681 6005 ft 178 kts 345°
2026-04-28 02:07 33.71599 -117.74985 6004 ft 178 kts 352°
2026-04-28 02:08 33.72771 -117.75385 6002 ft 178 kts 337°
2026-04-28 02:08 33.73887 -117.76029 6002 ft 178 kts 335°
2026-04-28 02:08 33.75039 -117.76444 6003 ft 178 kts 355°
2026-04-28 02:08 33.76308 -117.76633 6001 ft 178 kts 342°
2026-04-28 02:09 33.77421 -117.77230 6008 ft 178 kts 333°
2026-04-28 02:09 33.78512 -117.77938 6002 ft 178 kts 331°
2026-04-28 02:09 33.79599 -117.78667 6000 ft 178 kts 330°
2026-04-28 02:09 33.80682 -117.79397 6000 ft 178 kts 330°
2026-04-28 02:10 33.81776 -117.80100 5968 ft 180 kts 336°
2026-04-28 02:10 33.83013 -117.80499 5776 ft 188 kts 349°
2026-04-28 02:10 33.84316 -117.80806 5558 ft 193 kts 348°
2026-04-28 02:10 33.85628 -117.81218 5322 ft 193 kts 343°
2026-04-28 02:11 33.86845 -117.81729 5082 ft 179 kts 339°
2026-04-28 02:11 33.88047 -117.81939 4648 ft 179 kts
2026-04-28 02:11 33.89277 -117.81645 4171 ft 180 kts 22°
2026-04-28 02:11 33.90337 -117.80963 3847 ft 159 kts 28°
2026-04-28 02:12 33.91258 -117.80478 3656 ft 133 kts 20°
2026-04-28 02:12 33.92096 -117.80100 3358 ft 125 kts 20°
2026-04-28 02:12 33.92895 -117.79739 3107 ft 119 kts 16°
2026-04-28 02:12 33.93407 -117.79547 2988 ft 114 kts 13°
2026-04-28 02:13 33.94434 -117.79241 2896 ft 119 kts 12°
2026-04-28 02:13 33.94980 -117.79094 2840 ft 122 kts
2026-04-28 02:13 33.95812 -117.78884 2800 ft 123 kts
2026-04-28 02:13 33.96636 -117.78670 2698 ft 118 kts
2026-04-28 02:14 33.97445 -117.78508 2581 ft 117 kts
2026-04-28 02:14 33.98258 -117.78479 2498 ft 117 kts 358°
2026-04-28 02:14 33.99073 -117.78475 2514 ft 116 kts 356°
2026-04-28 02:14 33.99881 -117.78482 2531 ft 116 kts 356°
2026-04-28 02:15 34.01501 -117.78456 2577 ft 117 kts 357°
2026-04-28 02:15 34.02337 -117.78496 2521 ft 122 kts 355°
2026-04-28 02:15 34.03189 -117.78357 2547 ft 128 kts 18°
2026-04-28 02:16 34.03937 -117.77792 2572 ft 126 kts 36°
2026-04-28 02:16 34.04638 -117.77133 2424 ft 131 kts 32°
2026-04-28 02:16 34.05420 -117.76526 2188 ft 126 kts 25°
2026-04-28 02:16 34.06189 -117.76157 1944 ft 114 kts 13°
2026-04-28 02:17 34.06948 -117.75925 1821 ft 108 kts
2026-04-28 02:17 34.07636 -117.75824 1684 ft 97 kts 357°
2026-04-28 02:17 34.08290 -117.75924 1486 ft 94 kts 338°
2026-04-28 02:17 34.08833 -117.76266 1321 ft 82 kts 313°
2026-04-28 02:18 34.09058 -117.76851 1169 ft 79 kts 277°
2026-04-28 02:18 34.09101 -117.77506 1051 ft 74 kts 272°
2026-04-28 02:18 34.09124 -117.78043 1015 ft 47 kts 272°
2026-04-28 02:18 34.09112 -117.78245 1014 ft 17 kts 235°
2026-04-28 02:19 34.09078 -117.78297 1014 ft 0 kts 227°